Flag for U.S.A. Weather past 2 weeks in Glendale, Arizona, U.S.A.

Now
87 °F

Passing clouds.


Feels Like: 87 °F
Forecast: 87 / 102 °F
Wind: 8 mph from West

Location: Phoenix-Deer Valley Municipal Airport

Current Time: Aug 1, 2014 at 12:36:38 AM

Latest Report: Jul 31, 2014 at 11:53 PM


Visibility: 10 mi

Pressure: 29.84 "Hg

Humidity: 40%

Dew point: 60 °F

Location of GlendaleLocation

Historic Weather in Glendale — Graph

°F

Glendale temperature yesterday

Maximum temperature yesterday: 104 °F (at 2:53 PM)
Minimum temperature yesterday: 88 °F (at 4:53 AM)
Average temperature yesterday: 95 °F

Past Weeks' High & Low Weather Summary

 TemperatureHumidityPressure
High110 °F (Jul 22, 4:53 PM)82% (Jul 26, 11:53 PM)30.09 "Hg (Jul 26, 11:53 PM)
Low76 °F (Jul 21, 5:53 AM)8% (Jul 17, 1:53 PM)29.63 "Hg (Jul 24, 4:53 PM)
Average94 °F24%29.81 "Hg
* Reported Jul 16 10:53 PM — Jul 31 10:53 PM, Glendale, Weather by CustomWeather, © 2014

Note: Actual official high and low records may vary slightly from our data, if they occured in-between our weather recording intervals... More about our weather records

Advertising

Glendale weather history for previous 24 hours

 ConditionsComfort  
Time TempWeatherWind HumidityBarometerVisibility
10:53 PM
Jul 31
89 °FPassing clouds.18 mph36%29.83 "Hg10 mi
9:53 PM90 °FClear.14 mph31%29.79 "Hg10 mi
8:53 PM94 °FClear.13 mph24%29.77 "Hg10 mi
7:53 PM95 °FClear.15 mph24%29.76 "Hg10 mi
6:55 PM102 °FPassing clouds.21 mph18%29.82 "Hg9 mi
5:53 PM103 °FSunny.7 mph17%29.72 "Hg10 mi
4:53 PM104 °FSunny.10 mph17%29.72 "Hg10 mi
3:53 PM103 °FSunny.3 mph18%29.75 "Hg10 mi
2:53 PM104 °FSunny.6 mph18%29.78 "Hg10 mi
1:53 PM100 °FSunny.8 mph20%29.80 "Hg10 mi
12:53 PM101 °FSunny.6 mph21%29.83 "Hg10 mi
11:53 AM96 °FPartly sunny.3 mph24%29.85 "Hg10 mi
10:53 AM97 °FSunny.7 mph24%29.86 "Hg10 mi
9:53 AM95 °FSunny.No wind24%29.86 "Hg10 mi
8:53 AM92 °FSunny.8 mph30%29.85 "Hg10 mi
7:53 AM90 °FSunny.13 mph31%29.83 "Hg10 mi
6:53 AM90 °FSunny.10 mph31%29.81 "Hg10 mi
5:53 AM88 °FSunny.5 mph34%29.80 "Hg10 mi
4:53 AM88 °FClear.3 mph34%29.79 "Hg10 mi
3:53 AM89 °FClear.6 mph34%29.78 "Hg10 mi
2:53 AM90 °FClear.8 mph32%29.77 "Hg10 mi
1:53 AM93 °FClear.3 mph27%29.74 "Hg10 mi
12:53 AM95 °FClear.7 mph25%29.75 "Hg10 mi
Weather by CustomWeather, © 2014

See weather overviewHow to use our weather pages